New & Packaged Gym and Exercise Equipment in San Jose, CA

Lot #0105A: Muscle-D Recumbent Bike (In Original Packaging)

Bidding is closed.
High Bid:$1,450.00
NA
Bidding Ended: Thu, Nov 18  10:11:12 am PT
High Bidder: jerome
Bid Increment: $50.00
Starting Bid: $5.00
Item has been viewed 447 times.

Muscle-D Recumbent Bike (In Original Packaging)

  • Product Dimensions: 
    • Length: 66"
    • Height: 27"
    • Width: 53"
    • Weight: 243 lb
  • Incredibly comfortable bike with adjustable incline
    back rest.
  • Very quiet and super smooth operation
  • Extra LED display with large numbers for easy viewing
  • Multiple hill profile programs
  • One touch back rest adjustment
  • Quick length adjustment with convenient handle
  • Contact Heart Rate in handles
  • Wireless Heart Rate
  • Min Watts: 18 Watts @ 2 RPM
  • Max Watts: 420 Watts @ 90 RPM
  • Max User weight: 400 lb 136 kg
  • Resistance system: Self Generating
Bid Date Bid Amount Bidder
Nov 18, 2021 - 10:09:12 AM $1,450.00 ijerome
Nov 18, 2021 - 10:08:59 AM $1,400.00 iBuyit
Nov 18, 2021 - 10:08:59 AM $1,351.00 ijerome
Nov 18, 2021 - 10:08:47 AM $1,350.00 ijerome
Nov 18, 2021 - 10:08:47 AM $1,300.00 iBuyit
Nov 18, 2021 - 10:06:56 AM $1,250.00 ijerome
Nov 18, 2021 - 10:06:56 AM $1,221.00 ialterfocus
Nov 18, 2021 - 10:04:13 AM $1,171.00 ijerome
Nov 18, 2021 - 10:04:13 AM $1,121.00 iBuyit
Nov 18, 2021 - 10:00:55 AM $802.51 iBuyit
Nov 18, 2021 - 10:00:55 AM $792.51 iRandyjkure
Nov 18, 2021 - 10:00:28 AM $782.51 iBuyit
Nov 18, 2021 - 10:00:28 AM $772.51 iRandyjkure
Nov 18, 2021 - 10:00:16 AM $762.51 iBuyit
Nov 18, 2021 - 10:00:16 AM $752.51 iRandyjkure
Nov 18, 2021 - 9:59:59 AM $742.51 iBuyit
Nov 18, 2021 - 9:59:59 AM $732.51 iRandyjkure
Nov 18, 2021 - 9:52:56 AM $722.51 iBuyit
Nov 18, 2021 - 9:52:56 AM $712.51 imetalfab
Nov 18, 2021 - 9:46:47 AM $520.00 imetalfab
Nov 18, 2021 - 9:44:15 AM $510.00 iBuyit
Nov 18, 2021 - 9:44:05 AM $500.00 imetalfab
Nov 18, 2021 - 9:44:06 AM $500.00 iBuyit
Nov 18, 2021 - 9:42:34 AM $490.00 imetalfab
Nov 18, 2021 - 9:42:34 AM $480.00 iBuyit
Nov 18, 2021 - 9:42:30 AM $470.00 imetalfab
Nov 18, 2021 - 9:42:30 AM $460.00 iBuyit
Nov 18, 2021 - 9:42:27 AM $450.00 imetalfab
Nov 18, 2021 - 9:42:27 AM $440.00 iBuyit
Nov 18, 2021 - 9:40:22 AM $430.00 imetalfab
Nov 18, 2021 - 9:40:22 AM $420.00 iEveryoneWins
Nov 18, 2021 - 9:40:15 AM $410.00 imetalfab
Nov 18, 2021 - 9:40:15 AM $400.00 iEveryoneWins
Nov 18, 2021 - 9:34:37 AM $390.00 imetalfab
Nov 18, 2021 - 9:34:37 AM $380.00 iEveryoneWins
Nov 18, 2021 - 9:27:26 AM $370.00 imetalfab
Nov 18, 2021 - 7:27:42 AM $360.00 iBuyit
Nov 18, 2021 - 7:27:34 AM $350.00 imetalfab
Nov 18, 2021 - 7:27:34 AM $340.00 iBuyit
Nov 18, 2021 - 7:27:00 AM $330.00 imetalfab
Nov 18, 2021 - 7:27:00 AM $320.00 iBuyit
Nov 18, 2021 - 7:26:17 AM $260.00 imetalfab
Nov 18, 2021 - 7:26:17 AM $250.00 iBuyit
Nov 18, 2021 - 5:44:14 AM $210.00 imetalfab
Nov 17, 2021 - 7:13:35 PM $200.00 irandy722
Nov 17, 2021 - 7:13:36 PM $200.00 iAC_Bid
Nov 17, 2021 - 7:13:22 PM $190.00 irandy722
Nov 17, 2021 - 7:13:22 PM $180.00 iAC_Bid
Nov 17, 2021 - 7:13:08 PM $170.00 irandy722
Nov 17, 2021 - 7:13:08 PM $160.00 iAC_Bid
Nov 17, 2021 - 4:15:59 PM $150.00 irandy722
Nov 17, 2021 - 10:40:37 AM $140.00 iAC_Bid
Nov 17, 2021 - 8:44:24 AM $130.00 isierrafoothills1
Nov 17, 2021 - 8:28:01 AM $120.00 iJwarner
Nov 17, 2021 - 8:27:58 AM $110.00 iRandyjkure
Nov 17, 2021 - 8:27:58 AM $105.01 iJwarner
Nov 17, 2021 - 8:27:57 AM $100.01 iRandyjkure
Nov 17, 2021 - 8:27:57 AM $95.01 iJwarner
Nov 17, 2021 - 8:27:55 AM $90.01 iRandyjkure
Nov 17, 2021 - 8:27:55 AM $85.01 iJwarner
Nov 17, 2021 - 8:27:53 AM $80.01 iRandyjkure
Nov 17, 2021 - 8:27:53 AM $75.01 iJwarner
Nov 17, 2021 - 8:27:51 AM $70.01 iRandyjkure
Nov 17, 2021 - 8:27:51 AM $65.01 iJwarner
Nov 17, 2021 - 8:27:45 AM $60.01 iRandyjkure
Nov 17, 2021 - 8:27:45 AM $55.01 iJwarner
Nov 16, 2021 - 11:08:24 PM $50.01 iRandyjkure
Nov 16, 2021 - 9:34:20 PM $45.01 iNickjake
Nov 16, 2021 - 9:34:20 PM $45.00 isoswilm
Nov 16, 2021 - 9:33:29 PM $20.00 isoswilm
Nov 16, 2021 - 9:33:29 PM $15.00 iscience
Nov 16, 2021 - 12:15:21 PM $10.00 isoswilm
Nov 16, 2021 - 11:55:57 AM $5.00 iNickjake
Click on any picture to see a larger image.